Regional Weather Roundup
Issued by NWS

Home | Current Version | Previous Version | Text Only | Print | Product List | Glossary On
Versions: 1 2 3 4 5 6 7 8 9 10 11 12 13 14 15 16 17 18 19 20 21 22 23 24 25 26 27 28 29 30 31 32 33 34 35 36 37 38 39 40 41 42 43 44 45 46 47 48 49 50
000
ASUS42 KFFC 200803
RWRGA
WEATHER ROUNDUP FOR GEORGIA
NATIONAL WEATHER SERVICE PEACHTREE CITY GA
300 AM EST MON NOV 20 2017

NOTE: "FAIR" INDICATES FEW OR NO CLOUDS BELOW 12,000 FEET WITH NO
SIGNIFICANT WEATHER AND/OR OBSTRUCTIONS TO VISIBILITY.

* = USE WITH CAUTION. THE STATIONS MARKED WITH AN ASTERISK MAY NOT
REPORT WEATHER SUCH AS PRECIPITATION, FOG, OR THUNDER AND ARE NOT
QUALITY CONTROLLED BY NWS.

THE REMARK "TC" DENOTES TEMPERATURE READING IN DEGREES CELSIUS.

GAZ001>058-200900-
NORTH GEORGIA

CITY           SKY/WX    TMP DP  RH WIND       PRES   REMARKS
ATLANTA        CLEAR     36  28  73 NW13      30.16S WCI  27
ATHENS         CLEAR     33  30  88 NW5       30.15R WCI  29
CHAMBLEE       CLEAR     34  27  75 NW8       30.17R WCI  27
PEACHTREE CITY FLURRIES  36  27  69 NW9       30.18S WCI  29
ROME           CLEAR     33  27  78 CALM      30.22R
WEST ATLANTA   CLEAR     36  27  69 N5        30.18R WCI  32
GAINESVILLE    CLEAR     35  28  75 W7        30.16R WCI  29
CARTERSVILLE   CLEAR     32  28  85 CALM      30.22R


CITY           SKY/WX    TMP DP  RH WIND       PRES   REMARKS
DALTON*        CLEAR     34  30  86 NW7       30.23R WCI  28
LAWRENCEVILLE* CLEAR     34  29  82 VRB3        N/A
MARIETTA       CLEAR     34  26  73 NW6       30.17R WCI  29
KENNESAW*      CLEAR     35  27  72 W3        30.20R
CANTON*        CLEAR     34  30  86 SW3       30.18R
$$

GAZ059>098-102>109-200900-
CENTRAL GEORGIA

CITY           SKY/WX    TMP DP  RH WIND       PRES   REMARKS
AUGUSTA-BUSH   CLEAR     32  30  92 CALM      30.16R
AUGUSTA-DANIEL CLEAR     41  30  65 N5        30.16R
COLUMBUS       CLEAR     41  29  62 CALM      30.18R
MACON          PTCLDY    33  32  96 W3        30.18R
ROBINS AFB     CLEAR     36  33  91 CALM      30.17R


CITY           SKY/WX    TMP DP  RH WIND       PRES   REMARKS
LAGRANGE*      CLEAR     38  29  69 N6        30.19S WCI  34
SYLVANIA*      PTCLDY    38  36  91 N3        30.16R
MILLEDGEVILLE* PTCLDY    37  32  81 CALM      30.17R
$$

GAZ099>101-110>166-200900-
SOUTH GEORGIA

CITY           SKY/WX    TMP DP  RH WIND       PRES   REMARKS
SAVANNAH       PTCLDY    40  34  79 N6        30.16R
VALDOSTA       PTCLDY    33  31  92 CALM      30.16R
ALMA           PTCLDY    39  33  79 CALM      30.15S
ST SIMONS      PTCLDY    46  35  65 N9        30.14R
FT STEWART     PTCLDY    38  33  81 NW3       30.13R
ALBANY         CLEAR     39  33  79 CALM      30.20R
HUNTER AFB     PTCLDY    43  34  69 CALM      30.12R
MOODY AFB      PTCLDY    41  33  71 NE6       30.15R
BRUNSWICK      PTCLDY    43  32  65 NW5       30.15S


CITY           SKY/WX    TMP DP  RH WIND       PRES   REMARKS
BAINBRIDGE*    CLEAR     43  37  81 N3        30.18S
MOULTRIE*      CLEAR     43  34  70 N5        30.17R
VIDALIA*       PTCLDY    39  36  87 N5        30.16R
WAYCROSS*      PTCLDY    40  32  72 CALM      30.16R
DOUGLAS*       PTCLDY    41  32  70 N5        30.17S
$$



USA.gov is the U.S. government's official web portal to all federal, state and local government web resources and services.